Grand Forks, ND

2:16 AM CDT on June 25, 2017 (GMT -0500)
Grand Forks International

Weather History for KGFK - June, 2014

Change the Weather History Date:

Wednesday, June 25, 2014

  Actual Average Record
Temperature  
Mean Temperature 65 °F 66 °F  
Max Temperature 72 °F 78 °F 92 °F (2007)
Min Temperature 58 °F 55 °F 37 °F (1982)
Degree Days  
Heating Degree Days 0 2  
Month to date heating degree days 46 95  
Since 1 June heating degree days 46 95  
Since 1 July heating degree days 10587 9507  
Cooling Degree Days 0 3  
Month to date cooling degree days 35 55  
Year to date cooling degree days 88 72  
Since 1 June cooling degree days 35 55  
Growing Degree Days 14 (Base 50)    
Moisture  
Dew Point 58 °F    
Average Humidity 81    
Maximum Humidity 100    
Minimum Humidity 61    
Precipitation  
Precipitation T in 0.13 in 1.78 in (1969)
Month to date precipitation 6.14 2.87  
Year to date precipitation 13.32 8.59  
Snow  
Snow 0.00 in 0.00 in - ()
Month to date snowfall 0.0 0.0  
Since 1 June snowfall 0.0 0.0  
Since 1 July snowfall 60.3 47.4  
Snow Depth 0.00 in    
Sea Level Pressure  
Sea Level Pressure 30.04 in    
Wind  
Wind Speed 8 mph (ENE)    
Max Wind Speed 14 mph    
Max Gust Speed 17 mph    
Visibility 10 miles    
Events Rain    
T = Trace of Precipitation, MM = Missing Value Source: NWS Daily Summary

Daily Weather History Graph

Daily Weather History Graph

Search for Another Location

Airport or City:

Trip Planner

Search our weather history database for the weather conditions in past years. The results will help you decide how hot, cold, wet, or windy it might be!

Date:

Astronomy

Jun. 25, 2014 Rise Set
Actual Time 5:30 AM CDT 9:32 PM CDT
Civil Twilight 4:49 AM CDT 10:13 PM CDT
Nautical Twilight 3:51 AM CDT 11:10 PM CDT
Astronomical Twilight 2:14 AM CDT 12:47 AM CDT
Moon 4:30 AM CDT 7:58 PM CDT
Length of Visible Light 17h 23m
Length of Day
16h 01m
Waning Crescent, 3% of the Moon is Illuminated
Jun 25
Waning Crescent
Jun 27
New
Jul 5
First Quarter
Jul 12
Full
Jul 18
Last Quarter

Hourly Weather History & Observations

Time (CDT) Temp. Dew Point Humidity Pressure Visibility Wind Dir Wind Speed Gust Speed Precip Events Conditions
12:53 AM 59.0 °F 57.0 °F 93% 30.05 in 9.0 mi North 6.9 mph - N/A   Overcast
1:53 AM 59.0 °F 57.0 °F 93% 30.05 in 10.0 mi North 4.6 mph - N/A   Overcast
2:27 AM 57.2 °F 57.2 °F 100% 30.04 in 10.0 mi North 5.8 mph - N/A   Overcast
2:53 AM 57.9 °F 57.0 °F 97% 30.05 in 10.0 mi North 5.8 mph - N/A   Overcast
3:53 AM 57.9 °F 57.0 °F 97% 30.05 in 10.0 mi North 6.9 mph - N/A   Overcast
4:39 AM 57.2 °F 57.2 °F 100% 30.04 in 9.0 mi North 8.1 mph - N/A   Overcast
4:53 AM 57.9 °F 57.0 °F 97% 30.05 in 6.0 mi North 8.1 mph - N/A   Overcast
5:53 AM 57.9 °F 57.0 °F 97% 30.06 in 4.0 mi NNE 6.9 mph - 0.00 in Rain Light Rain
6:53 AM 59.0 °F 57.0 °F 93% 30.06 in 10.0 mi NNE 6.9 mph - 0.00 in   Overcast
7:53 AM 59.0 °F 57.0 °F 93% 30.07 in 10.0 mi NE 6.9 mph - N/A   Overcast
8:53 AM 60.1 °F 57.9 °F 93% 30.07 in 10.0 mi NE 6.9 mph - N/A   Overcast
9:53 AM 63.0 °F 57.9 °F 84% 30.07 in 10.0 mi ENE 4.6 mph - N/A   Overcast
10:23 AM 64.4 °F 59.0 °F 83% 30.06 in 10.0 mi East 5.8 mph - N/A   Overcast
10:53 AM 64.0 °F 57.9 °F 80% 30.06 in 10.0 mi ESE 6.9 mph - N/A   Overcast
11:31 AM 66.2 °F 59.0 °F 78% 30.05 in 10.0 mi Variable 5.8 mph - N/A   Overcast
11:53 AM 68.0 °F 57.9 °F 70% 30.04 in 10.0 mi East 8.1 mph - N/A   Overcast
12:29 PM 69.8 °F 57.2 °F 64% 30.04 in 10.0 mi ENE 6.9 mph - N/A   Overcast
12:50 PM 69.8 °F 57.2 °F 64% 30.04 in 10.0 mi ENE 9.2 mph - N/A   Overcast
12:53 PM 70.0 °F 57.9 °F 65% 30.04 in 10.0 mi ENE 5.8 mph - N/A   Overcast
1:21 PM 69.8 °F 57.2 °F 64% 30.04 in 10.0 mi East 8.1 mph - N/A   Overcast
1:53 PM 69.1 °F 57.0 °F 65% 30.04 in 10.0 mi ESE 9.2 mph - N/A   Overcast
2:53 PM 70.0 °F 57.9 °F 65% 30.05 in 10.0 mi ESE 5.8 mph - N/A   Overcast
3:53 PM 70.0 °F 59.0 °F 68% 30.03 in 10.0 mi SE 10.4 mph - N/A   Overcast
4:32 PM 69.8 °F 59.0 °F 68% 30.02 in 10.0 mi SE 12.7 mph - N/A   Mostly Cloudy
4:53 PM 70.0 °F 57.9 °F 65% 30.02 in 10.0 mi SE 10.4 mph - 0.00 in   Mostly Cloudy
5:53 PM 71.1 °F 59.0 °F 66% 30.02 in 10.0 mi SE 9.2 mph - N/A   Mostly Cloudy
6:53 PM 71.1 °F 57.9 °F 63% 30.00 in 10.0 mi East 10.4 mph - N/A   Mostly Cloudy
7:53 PM 69.1 °F 57.9 °F 68% 29.99 in 10.0 mi ESE 11.5 mph - N/A   Scattered Clouds
8:53 PM 66.9 °F 57.9 °F 73% 29.99 in 10.0 mi ESE 8.1 mph - N/A   Scattered Clouds
9:53 PM 64.9 °F 57.9 °F 78% 29.99 in 10.0 mi ESE 8.1 mph - N/A   Scattered Clouds
10:53 PM 63.0 °F 57.0 °F 81% 29.99 in 10.0 mi SE 8.1 mph - N/A   Scattered Clouds
11:53 PM 62.6 °F 57.2 °F 82% 29.99 in 10.0 mi ESE 8.1 mph - N/A   Clear